UAE98P EGBB-OMDB

Flight info

Callsign UAE98P
Flight time N/A
Altitude 37000
Route DTY M605 SILVA Q41 COWLY Q70 BIG UL9 KONAN DCT KOK DCT SISGA DCT RITAX DCT EDISA DCT PICWI DCT UTABA DCT BEMKI DCT ELMEM DCT DIRAB DCT PEVAL DCT AIOSA DCT LATAN DCT SALUN/N0493F390 N705 MMA P751 DASUM Y234 FYM M872 BDB Y214 RAPMA DCT KUVSO DCT KATIT DCT PEKEM M628 RIGIL G783 ELUDA/N0469F350 G783 ASPED Q308 KIPOK Q568 IMPED
Aircraft A388/J-SADE2E3FGHIJ3J4J5M1RWXY/LB1D1

Departure

Time N/A
Airport Birmingham Airport (EGBB)

Arrival

Time 2026-04-25 17:41
Airport Dubai International Airport (OMDB)
Time Latitude Longitude Altitude Speed Heading
2026-04-25 11:32 48.26104 9.45222 37076 ft 499 kts 136°
2026-04-25 11:32 48.23519 9.48663 37111 ft 497 kts 143°
2026-04-25 11:32 48.18168 9.55198 37105 ft 496 kts 142°
2026-04-25 11:33 48.12870 9.61710 37099 ft 495 kts 142°
2026-04-25 11:33 48.07542 9.68242 37095 ft 495 kts 142°
2026-04-25 11:34 48.02219 9.74747 37094 ft 494 kts 142°
2026-04-25 11:34 47.96894 9.81240 37103 ft 493 kts 143°
2026-04-25 11:35 47.91579 9.87698 37107 ft 493 kts 143°
2026-04-25 11:35 47.86268 9.94135 37105 ft 493 kts 143°
2026-04-25 11:36 47.80942 10.00573 37105 ft 492 kts 143°
2026-04-25 11:36 47.75621 10.06987 37112 ft 492 kts 144°
2026-04-25 11:37 47.70308 10.13372 37107 ft 491 kts 144°
2026-04-25 11:37 47.64990 10.19746 37106 ft 492 kts 144°
2026-04-25 11:38 47.59670 10.26107 37106 ft 492 kts 144°
2026-04-25 11:38 47.54227 10.32264 37102 ft 490 kts 151°
2026-04-25 11:39 47.48518 10.37772 37105 ft 490 kts 150°
2026-04-25 11:39 47.42825 10.43297 37103 ft 489 kts 150°
2026-04-25 11:40 47.37126 10.48815 37103 ft 490 kts 150°
2026-04-25 11:40 47.31459 10.54290 37090 ft 491 kts 150°
2026-04-25 11:41 47.25783 10.59845 37095 ft 489 kts 148°
2026-04-25 11:41 47.20252 10.65741 37097 ft 493 kts 148°
2026-04-25 11:42 47.14680 10.71642 37123 ft 495 kts 148°
2026-04-25 11:42 47.09056 10.77527 37124 ft 498 kts 148°
2026-04-25 11:43 47.03401 10.83415 37131 ft 498 kts 148°
2026-04-25 11:43 46.97759 10.89280 37143 ft 498 kts 148°
2026-04-25 11:44 46.92098 10.95156 37146 ft 498 kts 148°
2026-04-25 11:44 46.86442 11.01004 37140 ft 498 kts 148°
2026-04-25 11:45 46.80897 11.07060 37140 ft 500 kts 141°
2026-04-25 11:45 46.76011 11.14314 37122 ft 502 kts 137°
2026-04-25 11:46 46.71176 11.21641 37117 ft 500 kts 137°
2026-04-25 11:46 46.66340 11.28926 37047 ft 500 kts 137°
2026-04-25 11:47 46.61512 11.36174 37036 ft 498 kts 137°
2026-04-25 11:47 46.56687 11.43395 36993 ft 499 kts 137°
2026-04-25 11:48 46.51816 11.50661 36600 ft 504 kts 137°
2026-04-25 11:48 46.49380 11.54292 36169 ft 500 kts 137°
2026-04-25 11:48 46.46970 11.57878 36018 ft 505 kts 137°
2026-04-25 11:49 46.43650 11.62803 36036 ft 517 kts 137°
2026-04-25 11:50 46.32172 11.79791 36049 ft 519 kts 137°
2026-04-25 11:50 46.27129 11.87216 36050 ft 518 kts 137°
2026-04-25 11:51 46.22065 11.94652 36096 ft 520 kts 137°
2026-04-25 11:51 46.19527 11.98371 36319 ft 520 kts 137°
2026-04-25 11:51 46.16990 12.02082 36589 ft 520 kts 137°
2026-04-25 11:52 46.14525 12.05685 36831 ft 519 kts 137°
2026-04-25 11:52 46.12010 12.09359 36959 ft 507 kts 138°
2026-04-25 11:52 46.07110 12.16500 37050 ft 499 kts 138°
2026-04-25 11:53 46.02215 12.23603 37051 ft 500 kts 138°
2026-04-25 11:53 45.97316 12.30698 37050 ft 500 kts 138°
2026-04-25 11:54 45.92402 12.37797 37044 ft 501 kts 138°
2026-04-25 11:55 45.85060 12.48369 37057 ft 500 kts 138°
2026-04-25 11:55 45.80145 12.55423 37053 ft 500 kts 138°
2026-04-25 11:56 45.75225 12.62464 37059 ft 499 kts 138°
2026-04-25 11:56 45.70311 12.69479 37055 ft 500 kts 138°
2026-04-25 11:57 45.65373 12.76510 37060 ft 500 kts 138°
2026-04-25 11:57 45.60447 12.83506 37054 ft 500 kts 138°
2026-04-25 11:58 45.55514 12.90493 37053 ft 499 kts 138°
2026-04-25 11:58 45.50578 12.97464 37055 ft 499 kts 138°
2026-04-25 11:59 45.45639 13.04423 37051 ft 499 kts 138°
2026-04-25 11:59 45.40699 13.11365 37049 ft 499 kts 137°
2026-04-25 12:00 45.33302 13.21730 37060 ft 497 kts 138°
2026-04-25 12:01 45.25673 13.31673 37055 ft 496 kts 140°
2026-04-25 12:01 45.20583 13.38179 37056 ft 496 kts 140°
2026-04-25 12:02 45.12891 13.47972 37067 ft 495 kts 140°
2026-04-25 12:02 45.07763 13.54469 37057 ft 495 kts 140°
2026-04-25 12:03 45.02629 13.60951 37061 ft 495 kts 140°
2026-04-25 12:03 44.97495 13.67418 37068 ft 495 kts 140°
2026-04-25 12:04 44.92354 13.73875 37082 ft 494 kts 140°
2026-04-25 12:04 44.87215 13.80315 37079 ft 494 kts 140°
2026-04-25 12:05 44.82072 13.86743 37079 ft 494 kts 140°
2026-04-25 12:05 44.76930 13.93155 37075 ft 494 kts 140°
2026-04-25 12:06 44.71782 13.99558 37074 ft 494 kts 140°
2026-04-25 12:06 44.66639 14.05939 37070 ft 492 kts 140°
2026-04-25 12:07 44.61509 14.12288 37075 ft 492 kts 140°
2026-04-25 12:07 44.56381 14.18620 37071 ft 491 kts 140°
2026-04-25 12:08 44.51274 14.24909 37069 ft 491 kts 140°
2026-04-25 12:08 44.46145 14.31210 37083 ft 490 kts 140°
2026-04-25 12:09 44.41016 14.37497 37080 ft 490 kts 140°
2026-04-25 12:09 44.35890 14.43765 37070 ft 489 kts 140°
2026-04-25 12:10 44.30762 14.50019 37069 ft 489 kts 140°
2026-04-25 12:10 44.25636 14.56257 37067 ft 489 kts 140°
2026-04-25 12:11 44.20508 14.62482 37070 ft 488 kts 140°
2026-04-25 12:11 44.15379 14.68693 37069 ft 488 kts 140°
2026-04-25 12:12 44.11118 14.73842 37067 ft 488 kts 140°
2026-04-25 12:12 44.05986 14.80029 37067 ft 488 kts 140°
2026-04-25 12:13 44.00852 14.86202 37073 ft 487 kts 140°
2026-04-25 12:13 43.95725 14.92355 37089 ft 487 kts 140°
2026-04-25 12:14 43.90599 14.98493 37076 ft 487 kts 140°
2026-04-25 12:14 43.85471 15.04616 37072 ft 486 kts 140°
2026-04-25 12:15 43.80344 15.10725 37064 ft 486 kts 140°
2026-04-25 12:15 43.75208 15.16830 37067 ft 486 kts 140°
2026-04-25 12:16 43.70074 15.22919 37064 ft 487 kts 140°
2026-04-25 12:16 43.64932 15.29003 37069 ft 487 kts 140°
2026-04-25 12:17 43.59784 15.35079 37063 ft 487 kts 140°
2026-04-25 12:17 43.54628 15.41150 37076 ft 487 kts 140°
2026-04-25 12:18 43.49467 15.47214 37072 ft 487 kts 140°
2026-04-25 12:18 43.44312 15.53256 37077 ft 487 kts 140°
2026-04-25 12:19 43.36568 15.62306 37070 ft 487 kts 140°
2026-04-25 12:20 43.31402 15.68326 37065 ft 487 kts 139°
2026-04-25 12:20 43.26233 15.74336 37068 ft 487 kts 139°
2026-04-25 12:21 43.21095 15.80296 37068 ft 487 kts 140°
2026-04-25 12:21 43.15918 15.86288 37075 ft 487 kts 139°
2026-04-25 12:22 43.10738 15.92269 37074 ft 487 kts 140°
2026-04-25 12:22 43.05562 15.98232 37078 ft 486 kts 139°
2026-04-25 12:23 43.00385 16.04182 37072 ft 486 kts 139°
2026-04-25 12:23 42.95211 16.10116 37065 ft 486 kts 139°
2026-04-25 12:24 42.90037 16.16036 37065 ft 485 kts 139°
2026-04-25 12:24 42.84866 16.21939 37075 ft 484 kts 139°
2026-04-25 12:25 42.79700 16.27823 37070 ft 483 kts 139°
2026-04-25 12:25 42.74542 16.33686 37065 ft 483 kts 139°
2026-04-25 12:26 42.69386 16.39532 37060 ft 483 kts 139°
2026-04-25 12:26 42.64255 16.45337 37059 ft 483 kts 139°
2026-04-25 12:27 42.59095 16.51161 37066 ft 482 kts 139°
2026-04-25 12:27 42.53936 16.56973 37064 ft 482 kts 139°
2026-04-25 12:28 42.48774 16.62774 37065 ft 482 kts 139°
2026-04-25 12:28 42.43617 16.68557 37061 ft 482 kts 139°
2026-04-25 12:29 42.38452 16.74336 37064 ft 482 kts 139°
2026-04-25 12:29 42.33285 16.80104 37064 ft 481 kts 139°
2026-04-25 12:30 42.28120 16.85859 37061 ft 481 kts 139°
2026-04-25 12:30 42.22951 16.91603 37062 ft 481 kts 139°
2026-04-25 12:31 42.17784 16.97335 37064 ft 481 kts 139°
2026-04-25 12:31 42.12615 17.03055 37070 ft 480 kts 139°
2026-04-25 12:32 42.07452 17.08756 37058 ft 480 kts 139°
2026-04-25 12:32 42.02282 17.14458 37056 ft 480 kts 139°
2026-04-25 12:33 41.97115 17.20146 37052 ft 480 kts 139°
2026-04-25 12:33 41.91744 17.25490 37053 ft 482 kts 147°
2026-04-25 12:34 41.85808 17.29710 37057 ft 483 kts 151°
2026-04-25 12:34 41.79841 17.33832 37053 ft 483 kts 150°
2026-04-25 12:35 41.73874 17.37968 37050 ft 483 kts 150°
2026-04-25 12:35 41.67949 17.42059 37063 ft 483 kts 150°
2026-04-25 12:36 41.61976 17.46172 37056 ft 483 kts 150°
2026-04-25 12:36 41.55994 17.50282 37038 ft 483 kts 150°
2026-04-25 12:37 41.50010 17.54385 37056 ft 484 kts 150°
2026-04-25 12:37 41.44025 17.58479 37053 ft 484 kts 150°
2026-04-25 12:38 41.38044 17.62563 37051 ft 484 kts 150°
2026-04-25 12:38 41.32044 17.66650 37052 ft 484 kts 150°
2026-04-25 12:39 41.26053 17.70724 37054 ft 484 kts 150°
2026-04-25 12:39 41.20059 17.74790 37055 ft 484 kts 150°
2026-04-25 12:40 41.14072 17.78845 37050 ft 484 kts 150°
2026-04-25 12:40 41.08064 17.82904 37051 ft 484 kts 150°
2026-04-25 12:41 41.02066 17.86949 37051 ft 484 kts 150°
2026-04-25 12:41 40.96065 17.90987 37049 ft 484 kts 150°
2026-04-25 12:42 40.90058 17.95021 37051 ft 484 kts 150°
2026-04-25 12:42 40.84053 17.99046 37055 ft 484 kts 150°
2026-04-25 12:43 40.78055 18.03057 37047 ft 484 kts 150°
2026-04-25 12:43 40.69086 18.09040 37048 ft 483 kts 150°
2026-04-25 12:44 40.63078 18.13038 37047 ft 483 kts 150°
2026-04-25 12:45 40.54071 18.19017 37046 ft 483 kts 150°
2026-04-25 12:45 40.45066 18.24975 37046 ft 483 kts 150°
2026-04-25 12:46 40.39057 18.28941 37048 ft 483 kts 150°
2026-04-25 12:46 40.33052 18.32897 37049 ft 483 kts 150°
2026-04-25 12:47 40.27041 18.36849 37052 ft 483 kts 150°
2026-04-25 12:47 40.21030 18.40792 37050 ft 483 kts 150°
2026-04-25 12:48 40.15019 18.44729 37042 ft 484 kts 150°
2026-04-25 12:48 40.09004 18.48660 37041 ft 484 kts 150°
2026-04-25 12:49 40.02993 18.52580 37042 ft 484 kts 150°
2026-04-25 12:49 39.96964 18.56504 37037 ft 483 kts 150°
2026-04-25 12:50 39.90988 18.60386 37033 ft 483 kts 150°
2026-04-25 12:50 39.84974 18.64285 37034 ft 483 kts 150°
2026-04-25 12:51 39.78958 18.68178 37029 ft 483 kts 150°
2026-04-25 12:51 39.72935 18.72068 37030 ft 483 kts 150°
2026-04-25 12:52 39.66910 18.75951 37029 ft 483 kts 150°
2026-04-25 12:52 39.60881 18.79829 37034 ft 484 kts 150°
2026-04-25 12:53 39.54851 18.83701 37033 ft 484 kts 150°
2026-04-25 12:53 39.48813 18.87569 37033 ft 484 kts 150°
2026-04-25 12:54 39.42774 18.91432 37034 ft 484 kts 150°
2026-04-25 12:54 39.36726 18.95292 37036 ft 485 kts 150°
2026-04-25 12:55 39.31707 18.98516 37027 ft 484 kts 148°
2026-04-25 12:55 39.25379 19.04425 37030 ft 479 kts 135°
2026-04-25 12:56 39.20371 19.10106 37031 ft 480 kts 136°
2026-04-25 12:56 39.15347 19.15766 37022 ft 480 kts 136°
2026-04-25 12:57 39.10309 19.21436 37027 ft 481 kts 136°
2026-04-25 12:57 39.05275 19.27093 37026 ft 481 kts 136°
2026-04-25 12:58 39.00227 19.32755 37034 ft 481 kts 136°
2026-04-25 12:58 38.95215 19.38361 37032 ft 481 kts 136°
2026-04-25 12:59 38.90163 19.43999 37029 ft 481 kts 136°
2026-04-25 12:59 38.85110 19.49626 37024 ft 481 kts 136°
2026-04-25 13:00 38.81724 19.53390 37023 ft 481 kts 136°
2026-04-25 13:00 38.74977 19.60877 37022 ft 482 kts 136°
2026-04-25 13:01 38.69906 19.66492 37017 ft 483 kts 136°
2026-04-25 13:01 38.64814 19.72118 37018 ft 483 kts 136°
2026-04-25 13:02 38.59726 19.77729 37025 ft 483 kts 136°
2026-04-25 13:02 38.54628 19.83340 37024 ft 484 kts 136°
2026-04-25 13:03 38.50384 19.88004 37018 ft 485 kts 136°
2026-04-25 13:03 38.45270 19.93612 37015 ft 485 kts 136°
2026-04-25 13:04 38.40144 19.99224 37019 ft 486 kts 136°
2026-04-25 13:04 38.35016 20.04825 37022 ft 486 kts 136°
2026-04-25 13:05 38.29879 20.10427 37017 ft 486 kts 136°
2026-04-25 13:05 38.24744 20.16016 37010 ft 487 kts 136°
2026-04-25 13:06 38.19593 20.21611 37015 ft 486 kts 136°
2026-04-25 13:06 38.14450 20.27186 37016 ft 486 kts 136°
2026-04-25 13:07 38.09326 20.32730 37017 ft 487 kts 136°
2026-04-25 13:07 38.04171 20.38298 37018 ft 487 kts 136°
2026-04-25 13:08 37.99013 20.43857 37018 ft 487 kts 136°
2026-04-25 13:08 37.93846 20.49416 37011 ft 487 kts 137°
2026-04-25 13:09 37.88685 20.54958 37009 ft 486 kts 137°
2026-04-25 13:09 37.83523 20.60490 37007 ft 486 kts 137°
2026-04-25 13:10 37.78361 20.66012 36991 ft 486 kts 137°
2026-04-25 13:10 37.73192 20.71531 36988 ft 486 kts 137°
2026-04-25 13:11 37.68024 20.77038 36988 ft 486 kts 137°
2026-04-25 13:11 37.62851 20.82541 36994 ft 487 kts 137°
2026-04-25 13:12 37.57673 20.88037 36992 ft 486 kts 137°
2026-04-25 13:12 37.53366 20.92602 36992 ft 486 kts 137°
2026-04-25 13:13 37.47311 20.99007 36992 ft 486 kts 137°
2026-04-25 13:13 37.42122 21.04486 36997 ft 487 kts 137°
2026-04-25 13:14 37.36931 21.09956 36984 ft 487 kts 137°
2026-04-25 13:14 37.31725 21.15432 36983 ft 488 kts 138°
2026-04-25 13:15 37.26511 21.20905 36986 ft 489 kts 138°
2026-04-25 13:15 37.21285 21.26381 36990 ft 489 kts 138°
2026-04-25 13:16 37.16055 21.31851 36990 ft 490 kts 138°
2026-04-25 13:16 37.10813 21.37324 36981 ft 491 kts 139°
2026-04-25 13:17 37.05557 21.42800 36986 ft 492 kts 139°
2026-04-25 13:17 37.00293 21.48274 36989 ft 492 kts 139°
2026-04-25 13:18 36.95052 21.53716 36995 ft 493 kts 139°
2026-04-25 13:18 36.89774 21.59184 36996 ft 493 kts 139°
2026-04-25 13:19 36.84491 21.64649 36986 ft 493 kts 139°
2026-04-25 13:19 36.80061 21.69222 36991 ft 493 kts 139°
2026-04-25 13:20 36.76552 21.72840 37115 ft 496 kts 139°
2026-04-25 13:20 36.73884 21.75588 37521 ft 497 kts 139°
2026-04-25 13:20 36.71218 21.78331 37915 ft 497 kts 139°
2026-04-25 13:20 36.68546 21.81078 38278 ft 499 kts 139°
2026-04-25 13:21 36.65867 21.83829 38610 ft 500 kts 139°
2026-04-25 13:21 36.63181 21.86586 38901 ft 501 kts 140°
2026-04-25 13:21 36.57792 21.92106 38986 ft 497 kts 140°
2026-04-25 13:22 36.52442 21.97579 39003 ft 500 kts 140°
2026-04-25 13:23 36.44382 22.05802 39003 ft 500 kts 140°
2026-04-25 13:23 36.39005 22.11276 38983 ft 501 kts 140°
2026-04-25 13:24 36.33612 22.16758 39012 ft 502 kts 140°
2026-04-25 13:24 36.28212 22.22234 39010 ft 502 kts 140°
2026-04-25 13:25 36.22808 22.27705 39007 ft 501 kts 140°
2026-04-25 13:25 36.17413 22.33157 38989 ft 501 kts 140°
2026-04-25 13:26 36.12016 22.38600 38987 ft 500 kts 140°
2026-04-25 13:26 36.06631 22.44023 39003 ft 499 kts 140°
2026-04-25 13:27 36.01243 22.49438 38985 ft 499 kts 141°
2026-04-25 13:27 35.95847 22.54851 38968 ft 500 kts 141°
2026-04-25 13:28 35.90439 22.60266 38969 ft 501 kts 141°
2026-04-25 13:28 35.85016 22.65686 38974 ft 502 kts 141°
2026-04-25 13:29 35.79583 22.71107 38980 ft 503 kts 141°
2026-04-25 13:29 35.74140 22.76528 38969 ft 504 kts 141°
2026-04-25 13:30 35.65931 22.84684 38972 ft 506 kts 141°
2026-04-25 13:31 35.57679 22.92862 38989 ft 509 kts 142°
2026-04-25 13:31 35.52143 22.98336 38920 ft 513 kts 142°
2026-04-25 13:32 35.46573 23.03832 38976 ft 514 kts 141°
2026-04-25 13:32 35.41033 23.09290 38972 ft 514 kts 142°
2026-04-25 13:33 35.35414 23.14814 38971 ft 514 kts 142°
2026-04-25 13:33 35.29856 23.20269 38918 ft 516 kts 142°
2026-04-25 13:34 35.24264 23.25749 38946 ft 515 kts 142°
2026-04-25 13:34 35.18645 23.31242 38905 ft 517 kts 142°
2026-04-25 13:35 35.13036 23.36719 38880 ft 517 kts 143°
2026-04-25 13:35 35.07424 23.42186 38935 ft 514 kts 142°
2026-04-25 13:36 35.01833 23.47625 38909 ft 514 kts 143°
2026-04-25 13:36 34.96247 23.53049 38894 ft 513 kts 143°
2026-04-25 13:37 34.90659 23.58463 38873 ft 513 kts 143°
2026-04-25 13:37 34.85079 23.63861 38883 ft 512 kts 143°
2026-04-25 13:38 34.79497 23.69252 38854 ft 512 kts 143°
2026-04-25 13:38 34.73920 23.74628 38879 ft 511 kts 143°
2026-04-25 13:39 34.68349 23.79989 38877 ft 510 kts 143°
2026-04-25 13:39 34.62790 23.85328 38870 ft 509 kts 143°
2026-04-25 13:40 34.57234 23.90655 38864 ft 509 kts 143°
2026-04-25 13:40 34.51684 23.95968 38834 ft 508 kts 143°
2026-04-25 13:41 34.46132 24.01272 38846 ft 508 kts 143°
2026-04-25 13:41 34.40571 24.06577 38844 ft 509 kts 143°
2026-04-25 13:42 34.35002 24.11880 38857 ft 509 kts 144°
2026-04-25 13:42 34.29426 24.17180 38854 ft 510 kts 144°
2026-04-25 13:43 34.23849 24.22473 38835 ft 511 kts 144°
2026-04-25 13:43 34.18253 24.27775 38835 ft 512 kts 144°
2026-04-25 13:44 34.12649 24.33080 38843 ft 513 kts 144°
2026-04-25 13:44 34.07020 24.38398 38851 ft 514 kts 144°
2026-04-25 13:45 34.01394 24.43706 38853 ft 514 kts 144°
2026-04-25 13:45 33.95883 24.49206 38848 ft 515 kts 140°
2026-04-25 13:46 33.90597 24.55040 38826 ft 516 kts 140°
2026-04-25 13:46 33.85274 24.60834 38832 ft 516 kts 141°
2026-04-25 13:47 33.79919 24.66590 38823 ft 516 kts 141°
2026-04-25 13:47 33.74558 24.72329 38828 ft 517 kts 141°
2026-04-25 13:48 33.69223 24.78031 38821 ft 517 kts 141°
2026-04-25 13:48 33.63850 24.83763 38818 ft 517 kts 141°
2026-04-25 13:49 33.58474 24.89489 38820 ft 517 kts 141°
2026-04-25 13:49 33.53091 24.95213 38822 ft 517 kts 141°
2026-04-25 13:50 33.47708 25.00927 38819 ft 517 kts 141°
2026-04-25 13:50 33.42331 25.06624 38835 ft 516 kts 142°
2026-04-25 13:51 33.37866 25.11348 38840 ft 515 kts 142°
2026-04-25 13:51 33.32497 25.17019 38833 ft 514 kts 142°
2026-04-25 13:52 33.27133 25.22675 38826 ft 514 kts 142°
2026-04-25 13:52 33.21776 25.28315 38833 ft 513 kts 142°
2026-04-25 13:53 33.16421 25.33942 38820 ft 512 kts 142°
2026-04-25 13:53 33.11078 25.39548 38850 ft 511 kts 142°
2026-04-25 13:54 33.05734 25.45144 38848 ft 511 kts 142°
2026-04-25 13:54 33.00391 25.50730 38835 ft 511 kts 142°
2026-04-25 13:55 32.95049 25.56306 38850 ft 510 kts 142°
2026-04-25 13:55 32.89708 25.61873 38848 ft 511 kts 143°
2026-04-25 13:56 32.84367 25.67430 38871 ft 510 kts 143°
2026-04-25 13:56 32.79021 25.72982 38869 ft 510 kts 143°
2026-04-25 13:57 32.73679 25.78521 38875 ft 509 kts 143°
2026-04-25 13:57 32.68338 25.84051 38860 ft 509 kts 143°
2026-04-25 13:58 32.62996 25.89571 38866 ft 509 kts 143°
2026-04-25 13:58 32.57654 25.95081 38860 ft 509 kts 143°
2026-04-25 13:59 32.52337 26.00559 38859 ft 510 kts 144°
2026-04-25 13:59 32.46977 26.06071 38870 ft 511 kts 144°
2026-04-25 14:00 32.41604 26.11588 38875 ft 511 kts 144°
2026-04-25 14:00 32.36216 26.17112 38875 ft 512 kts 144°
2026-04-25 14:01 32.30859 26.22594 38883 ft 513 kts 144°
2026-04-25 14:01 32.25458 26.28112 38875 ft 514 kts 145°
2026-04-25 14:02 32.20040 26.33637 38884 ft 515 kts 145°
2026-04-25 14:02 32.14614 26.39162 38895 ft 516 kts 145°
2026-04-25 14:03 32.09167 26.44701 38903 ft 517 kts 145°
2026-04-25 14:03 32.03716 26.50234 38900 ft 517 kts 146°
2026-04-25 14:04 31.98265 26.55759 38907 ft 517 kts 146°
2026-04-25 14:04 31.92804 26.61283 38905 ft 517 kts 146°
2026-04-25 14:05 31.87341 26.66801 38913 ft 517 kts 146°
2026-04-25 14:05 31.81882 26.72307 38910 ft 517 kts 146°
2026-04-25 14:06 31.76424 26.77802 38899 ft 517 kts 146°
2026-04-25 14:06 31.70964 26.83292 38904 ft 516 kts 146°
2026-04-25 14:07 31.65509 26.88766 38892 ft 516 kts 147°
2026-04-25 14:07 31.60049 26.94236 38897 ft 516 kts 147°
2026-04-25 14:08 31.54591 26.99696 38908 ft 516 kts 147°
2026-04-25 14:08 31.49122 27.05158 38903 ft 516 kts 147°
2026-04-25 14:09 31.43653 27.10612 38907 ft 517 kts 147°
2026-04-25 14:09 31.38177 27.16067 38897 ft 517 kts 147°
2026-04-25 14:10 31.32869 27.21681 38910 ft 524 kts 140°
2026-04-25 14:10 31.28325 27.28469 38917 ft 536 kts 130°
2026-04-25 14:11 31.24175 27.35704 38916 ft 536 kts 130°
2026-04-25 14:11 31.19999 27.42911 38913 ft 536 kts 130°
2026-04-25 14:12 31.15813 27.50113 38893 ft 536 kts 131°
2026-04-25 14:12 31.11609 27.57308 38891 ft 537 kts 131°
2026-04-25 14:13 31.07334 27.64459 38896 ft 537 kts 132°
2026-04-25 14:13 31.03055 27.71604 38860 ft 539 kts 132°
2026-04-25 14:14 30.98760 27.78778 38875 ft 540 kts 132°
2026-04-25 14:14 30.94449 27.85971 38901 ft 542 kts 132°
2026-04-25 14:15 30.90121 27.93178 38899 ft 543 kts 132°
2026-04-25 14:15 30.85785 28.00387 38898 ft 544 kts 132°
2026-04-25 14:16 30.81441 28.07596 38890 ft 544 kts 132°
2026-04-25 14:16 30.77091 28.14800 38886 ft 544 kts 132°
2026-04-25 14:17 30.72736 28.21999 38876 ft 544 kts 132°
2026-04-25 14:17 30.68377 28.29190 38878 ft 544 kts 132°
2026-04-25 14:17 30.66192 28.32789 38999 ft 546 kts 132°
2026-04-25 14:18 30.64003 28.36393 39277 ft 547 kts 133°
2026-04-25 14:18 30.59572 28.43668 39584 ft 554 kts 133°
2026-04-25 14:18 30.57346 28.47326 39935 ft 554 kts 133°
2026-04-25 14:19 30.55127 28.50969 40275 ft 553 kts 133°
2026-04-25 14:19 30.52905 28.54614 40579 ft 553 kts 133°
2026-04-25 14:19 30.50679 28.58259 40823 ft 555 kts 133°
2026-04-25 14:20 30.46968 28.64328 40861 ft 550 kts 133°
2026-04-25 14:20 30.41782 28.72794 40862 ft 553 kts 133°
2026-04-25 14:21 30.37327 28.80052 40852 ft 553 kts 133°
2026-04-25 14:21 30.32894 28.87263 40854 ft 553 kts 133°
2026-04-25 14:22 30.28425 28.94517 40839 ft 553 kts 133°
2026-04-25 14:22 30.23958 29.01755 40816 ft 553 kts 133°
2026-04-25 14:23 30.19481 29.08999 40796 ft 554 kts 134°
2026-04-25 14:23 30.15002 29.16253 40806 ft 555 kts 134°
2026-04-25 14:24 30.10522 29.23538 40814 ft 558 kts 133°
2026-04-25 14:24 30.06088 29.30913 40819 ft 560 kts 133°
2026-04-25 14:25 30.01641 29.38293 40837 ft 560 kts 133°
2026-04-25 14:25 29.97177 29.45668 40843 ft 561 kts 133°
2026-04-25 14:26 29.92699 29.53047 40848 ft 561 kts 133°
2026-04-25 14:26 29.88223 29.60409 40850 ft 561 kts 133°
2026-04-25 14:27 29.83712 29.67816 40850 ft 561 kts 133°
2026-04-25 14:27 29.79235 29.75153 40852 ft 560 kts 133°
2026-04-25 14:28 29.74752 29.82487 40847 ft 560 kts 133°
2026-04-25 14:28 29.70272 29.89802 40859 ft 559 kts 133°
2026-04-25 14:29 29.65787 29.97112 40842 ft 559 kts 133°
2026-04-25 14:29 29.61299 30.04416 40836 ft 559 kts 133°
2026-04-25 14:30 29.56836 30.11664 40826 ft 559 kts 133°
2026-04-25 14:30 29.50087 30.22602 40849 ft 560 kts 134°
2026-04-25 14:31 29.45576 30.29896 40850 ft 560 kts 134°
2026-04-25 14:31 29.41054 30.37173 40852 ft 559 kts 135°
2026-04-25 14:32 29.36006 30.43803 40831 ft 547 kts 144°
2026-04-25 14:32 29.30711 30.50086 40842 ft 549 kts 143°
2026-04-25 14:33 29.25411 30.56407 40858 ft 551 kts 143°
2026-04-25 14:33 29.20092 30.62739 40876 ft 552 kts 143°
2026-04-25 14:34 29.14766 30.69068 40876 ft 553 kts 143°
2026-04-25 14:34 29.09426 30.75402 40887 ft 553 kts 143°
2026-04-25 14:35 29.04082 30.81732 40842 ft 553 kts 144°
2026-04-25 14:35 28.99647 30.86977 40882 ft 552 kts 144°
2026-04-25 14:36 28.94310 30.93279 40885 ft 552 kts 144°
2026-04-25 14:36 28.88974 30.99571 40888 ft 551 kts 144°
2026-04-25 14:37 28.82771 31.06870 40895 ft 552 kts 144°
2026-04-25 14:37 28.78293 31.12133 40896 ft 552 kts 144°
2026-04-25 14:38 28.72948 31.18404 40898 ft 552 kts 144°
2026-04-25 14:38 28.67625 31.24715 40851 ft 554 kts 142°
2026-04-25 14:39 28.62487 31.31255 40897 ft 555 kts 141°
2026-04-25 14:39 28.57340 31.37799 40909 ft 555 kts 142°
2026-04-25 14:40 28.52151 31.44330 40923 ft 556 kts 142°
2026-04-25 14:40 28.46954 31.50847 40928 ft 556 kts 142°
2026-04-25 14:41 28.41753 31.57362 40927 ft 557 kts 142°
2026-04-25 14:41 28.36546 31.63871 40939 ft 557 kts 142°
2026-04-25 14:42 28.32218 31.69275 40938 ft 557 kts 142°
2026-04-25 14:42 28.26132 31.76863 40925 ft 556 kts 142°
2026-04-25 14:43 28.20951 31.83311 40928 ft 556 kts 142°
2026-04-25 14:43 28.15733 31.89793 40937 ft 557 kts 142°
2026-04-25 14:44 28.10512 31.96271 40937 ft 557 kts 142°
2026-04-25 14:44 28.05321 32.02803 40944 ft 562 kts 138°
2026-04-25 14:45 28.00861 32.10216 40929 ft 577 kts 126°
2026-04-25 14:45 27.97049 32.18217 40933 ft 578 kts 126°
2026-04-25 14:46 27.93205 32.26202 40916 ft 578 kts 126°
2026-04-25 14:46 27.89352 32.34174 40862 ft 577 kts 126°
2026-04-25 14:47 27.86152 32.40784 40869 ft 577 kts 126°
2026-04-25 14:47 27.81643 32.50080 40868 ft 578 kts 126°
2026-04-25 14:48 27.79401 32.54696 40866 ft 578 kts 126°
2026-04-25 14:50 27.75771 32.61954 40826 ft 577 kts 126°
2026-04-25 14:50 27.71951 32.69929 40860 ft 578 kts 126°
2026-04-25 14:51 27.68093 32.77895 40866 ft 579 kts 126°
2026-04-25 14:51 27.64205 32.85852 40870 ft 579 kts 126°
2026-04-25 14:52 27.60311 32.93797 40868 ft 578 kts 126°
2026-04-25 14:52 27.57076 33.00385 40865 ft 578 kts 126°
2026-04-25 14:53 27.52519 33.09652 40864 ft 578 kts 126°
2026-04-25 14:53 27.48617 33.17572 40873 ft 578 kts 127°
2026-04-25 14:54 27.44730 33.25443 40859 ft 579 kts 127°
2026-04-25 14:54 27.40812 33.33367 40857 ft 579 kts 127°
2026-04-25 14:55 27.36892 33.41279 40855 ft 579 kts 127°
2026-04-25 14:55 27.32968 33.49182 40848 ft 578 kts 127°
2026-04-25 14:56 27.29043 33.57071 40849 ft 578 kts 127°
2026-04-25 14:56 27.25115 33.64952 40852 ft 578 kts 127°
2026-04-25 14:57 27.21175 33.72843 40855 ft 579 kts 127°
2026-04-25 14:57 27.17366 33.80836 40857 ft 586 kts 120°
2026-04-25 14:58 27.14315 33.89381 40859 ft 590 kts 118°
2026-04-25 14:58 27.11283 33.97927 40843 ft 589 kts 118°
2026-04-25 14:59 27.08261 34.06402 40856 ft 589 kts 118°
2026-04-25 14:59 27.05210 34.14939 40854 ft 589 kts 118°
2026-04-25 15:00 27.02161 34.23454 40844 ft 589 kts 118°
2026-04-25 15:00 26.99103 34.31973 40853 ft 588 kts 118°
2026-04-25 15:01 26.96047 34.40467 40852 ft 587 kts 118°
2026-04-25 15:01 26.92986 34.48956 40830 ft 587 kts 118°
2026-04-25 15:02 26.89930 34.57413 40850 ft 586 kts 118°
2026-04-25 15:02 26.86867 34.65870 40853 ft 585 kts 118°
2026-04-25 15:03 26.83800 34.74319 40841 ft 585 kts 118°
2026-04-25 15:03 26.80732 34.82753 40850 ft 585 kts 118°
2026-04-25 15:04 26.77657 34.91189 40852 ft 585 kts 118°
2026-04-25 15:04 26.74580 34.99615 40834 ft 585 kts 118°
2026-04-25 15:05 26.71499 35.08040 40860 ft 585 kts 118°
2026-04-25 15:06 26.66866 35.20673 40861 ft 585 kts 118°
2026-04-25 15:06 26.63793 35.29028 40857 ft 584 kts 118°
2026-04-25 15:07 26.60702 35.37416 40862 ft 584 kts 118°
2026-04-25 15:07 26.57606 35.45801 40860 ft 584 kts 118°
2026-04-25 15:08 26.54478 35.54154 40861 ft 582 kts 119°
2026-04-25 15:08 26.51291 35.62461 40857 ft 582 kts 119°
2026-04-25 15:09 26.48109 35.70756 40856 ft 581 kts 119°
2026-04-25 15:09 26.43341 35.83190 40866 ft 580 kts 119°
2026-04-25 15:10 26.40166 35.91448 40864 ft 579 kts 119°
2026-04-25 15:11 26.35401 36.03813 40857 ft 578 kts 119°
2026-04-25 15:11 26.32221 36.12042 40857 ft 578 kts 119°
2026-04-25 15:12 26.27444 36.24374 40855 ft 577 kts 119°
2026-04-25 15:12 26.25335 36.29808 40853 ft 577 kts 119°
2026-04-25 15:13 26.19495 36.44813 40854 ft 577 kts 119°
2026-04-25 15:14 26.15988 36.52790 40851 ft 570 kts 126°
2026-04-25 15:14 26.12163 36.60525 40854 ft 571 kts 125°
2026-04-25 15:15 26.08349 36.68273 40857 ft 571 kts 125°
2026-04-25 15:15 26.04523 36.76024 40835 ft 571 kts 125°
2026-04-25 15:16 26.00701 36.83752 40865 ft 571 kts 125°
2026-04-25 15:16 25.94957 36.95337 40850 ft 570 kts 125°
2026-04-25 15:17 25.89213 37.06893 40849 ft 569 kts 125°
2026-04-25 15:18 25.85392 37.14562 40846 ft 568 kts 125°
2026-04-25 15:18 25.79647 37.26072 40847 ft 567 kts 125°
2026-04-25 15:19 25.77125 37.31138 40852 ft 567 kts 125°
2026-04-25 15:19 25.72055 37.41325 40867 ft 565 kts 125°
2026-04-25 15:20 25.68252 37.48951 40856 ft 565 kts 125°
2026-04-25 15:20 25.64450 37.56559 40883 ft 564 kts 125°
2026-04-25 15:21 25.60657 37.64152 40865 ft 562 kts 125°
2026-04-25 15:21 25.56854 37.71723 40854 ft 563 kts 125°
2026-04-25 15:22 25.53044 37.79299 40867 ft 564 kts 125°
2026-04-25 15:22 25.49223 37.86890 40885 ft 564 kts 125°
2026-04-25 15:23 25.45402 37.94472 40875 ft 564 kts 125°
2026-04-25 15:23 25.41577 38.02049 40867 ft 564 kts 125°
2026-04-25 15:24 25.37747 38.09627 40862 ft 564 kts 125°
2026-04-25 15:24 25.35209 38.14635 40850 ft 564 kts 125°
2026-04-25 15:25 25.30111 38.24685 40857 ft 562 kts 124°
2026-04-25 15:25 25.26266 38.32251 40846 ft 561 kts 124°
2026-04-25 15:26 25.22478 38.39697 40843 ft 560 kts 125°
2026-04-25 15:26 25.18658 38.47184 40835 ft 559 kts 125°
2026-04-25 15:27 25.14843 38.54653 40838 ft 559 kts 124°
2026-04-25 15:28 25.09745 38.64597 40836 ft 558 kts 124°
2026-04-25 15:28 25.05923 38.72044 40861 ft 557 kts 124°
2026-04-25 15:29 25.02109 38.79459 40870 ft 556 kts 124°
2026-04-25 15:29 24.98288 38.86876 40870 ft 556 kts 124°
2026-04-25 15:30 24.95116 38.93030 40884 ft 555 kts 124°
2026-04-25 15:30 24.90652 39.01660 40888 ft 555 kts 124°
2026-04-25 15:31 24.86826 39.09042 40887 ft 555 kts 124°
2026-04-25 15:31 24.83003 39.16408 40900 ft 554 kts 124°
2026-04-25 15:32 24.79180 39.23765 40887 ft 553 kts 124°
2026-04-25 15:32 24.75361 39.31107 40888 ft 553 kts 124°
2026-04-25 15:33 24.69628 39.42104 40912 ft 551 kts 124°
2026-04-25 15:33 24.65811 39.49415 40906 ft 551 kts 124°
2026-04-25 15:34 24.61997 39.56704 40899 ft 550 kts 124°
2026-04-25 15:34 24.58831 39.62741 40907 ft 548 kts 124°
2026-04-25 15:35 24.55272 39.71761 40897 ft 555 kts 108°
2026-04-25 15:35 24.54356 39.75881 40899 ft 557 kts 102°
2026-04-25 15:36 24.53036 39.88530 40927 ft 558 kts 97°
2026-04-25 15:36 24.52216 39.97002 40910 ft 558 kts 97°
2026-04-25 15:37 24.51391 40.05474 40915 ft 557 kts 97°
2026-04-25 15:37 24.50565 40.13930 40919 ft 557 kts 97°
2026-04-25 15:38 24.49735 40.22376 40916 ft 556 kts 97°
2026-04-25 15:38 24.48902 40.30808 40920 ft 555 kts 97°
2026-04-25 15:39 24.48066 40.39222 40918 ft 554 kts 97°
2026-04-25 15:39 24.47225 40.47634 40925 ft 554 kts 97°
2026-04-25 15:40 24.46517 40.54680 40898 ft 555 kts 97°
2026-04-25 15:40 24.45527 40.64479 40915 ft 556 kts 97°
2026-04-25 15:41 24.44668 40.72906 40921 ft 557 kts 97°
2026-04-25 15:41 24.43802 40.81360 40928 ft 558 kts 97°
2026-04-25 15:42 24.43108 40.88095 40937 ft 559 kts 97°
2026-04-25 15:42 24.42230 40.96585 40951 ft 560 kts 97°
2026-04-25 15:43 24.41346 41.05088 40963 ft 561 kts 97°
2026-04-25 15:43 24.40456 41.13597 40960 ft 562 kts 97°
2026-04-25 15:44 24.39563 41.22106 40974 ft 561 kts 97°
2026-04-25 15:44 24.38666 41.30608 40980 ft 561 kts 97°
2026-04-25 15:45 24.37764 41.39108 40975 ft 561 kts 97°
2026-04-25 15:45 24.37011 41.46163 40978 ft 560 kts 97°
2026-04-25 15:46 24.35954 41.56021 40966 ft 560 kts 97°
2026-04-25 15:46 24.35040 41.64500 40966 ft 560 kts 97°
2026-04-25 15:47 24.34120 41.72983 40973 ft 561 kts 97°
2026-04-25 15:47 24.33120 41.81466 40999 ft 561 kts 102°
2026-04-25 15:48 24.31172 41.89739 40975 ft 561 kts 108°
2026-04-25 15:48 24.29005 41.97961 40982 ft 562 kts 108°
2026-04-25 15:49 24.26845 42.06186 40997 ft 562 kts 108°
2026-04-25 15:49 24.24673 42.14423 41014 ft 562 kts 108°
2026-04-25 15:50 24.22496 42.22648 41010 ft 562 kts 108°
2026-04-25 15:50 24.20317 42.30863 40997 ft 562 kts 108°
2026-04-25 15:51 24.18502 42.37687 40993 ft 561 kts 108°
2026-04-25 15:51 24.15945 42.47284 40979 ft 561 kts 108°
2026-04-25 15:52 24.13757 42.55473 40983 ft 561 kts 108°
2026-04-25 15:52 24.11564 42.63665 40994 ft 560 kts 108°
2026-04-25 15:53 24.09366 42.71854 40992 ft 560 kts 108°
2026-04-25 15:53 24.07165 42.80032 40979 ft 561 kts 108°
2026-04-25 15:54 24.04959 42.88215 40981 ft 561 kts 108°
2026-04-25 15:54 24.02747 42.96397 40982 ft 561 kts 108°
2026-04-25 15:55 24.00545 43.04521 40965 ft 561 kts 108°
2026-04-25 15:55 23.98323 43.12704 40961 ft 562 kts 108°
2026-04-25 15:56 23.96094 43.20888 40972 ft 562 kts 108°
2026-04-25 15:56 23.93861 43.29074 40978 ft 562 kts 108°
2026-04-25 15:57 23.91619 43.37272 40974 ft 563 kts 108°
2026-04-25 15:57 23.89372 43.45468 40942 ft 564 kts 108°
2026-04-25 15:58 23.87117 43.53677 40945 ft 564 kts 108°
2026-04-25 15:58 23.84855 43.61891 40943 ft 565 kts 108°
2026-04-25 15:59 23.82588 43.70103 40939 ft 566 kts 108°
2026-04-25 15:59 23.80312 43.78334 40956 ft 566 kts 108°
2026-04-25 16:00 23.78803 43.83779 40925 ft 567 kts 108°
2026-04-25 16:00 23.76917 43.95087 40939 ft 567 kts 94°
2026-04-25 16:01 23.76309 44.03666 40928 ft 567 kts 94°
2026-04-25 16:01 23.75665 44.12226 40934 ft 565 kts 94°
2026-04-25 16:02 23.75020 44.20781 40920 ft 565 kts 94°
2026-04-25 16:02 23.74372 44.29329 40919 ft 564 kts 94°
2026-04-25 16:03 23.73721 44.37863 40915 ft 564 kts 94°
2026-04-25 16:03 23.73066 44.46387 40922 ft 564 kts 94°
2026-04-25 16:04 23.72406 44.54919 40935 ft 564 kts 94°
2026-04-25 16:04 23.71741 44.63446 40936 ft 563 kts 94°
2026-04-25 16:05 23.71074 44.71946 40942 ft 563 kts 94°
2026-04-25 16:06 23.70063 44.84705 40938 ft 562 kts 95°
2026-04-25 16:06 23.69389 44.93140 40931 ft 562 kts 95°
2026-04-25 16:07 23.68705 45.01640 40932 ft 563 kts 95°
2026-04-25 16:07 23.68016 45.10132 40953 ft 561 kts 95°
2026-04-25 16:08 23.67324 45.18610 40948 ft 561 kts 95°
2026-04-25 16:08 23.66627 45.27087 40938 ft 561 kts 95°
2026-04-25 16:09 23.65927 45.35561 40934 ft 561 kts 95°
2026-04-25 16:09 23.65221 45.44034 40926 ft 562 kts 95°
2026-04-25 16:10 23.64510 45.52525 40933 ft 562 kts 95°
2026-04-25 16:10 23.63795 45.61006 40944 ft 561 kts 95°
2026-04-25 16:11 23.63075 45.69476 40940 ft 561 kts 95°
2026-04-25 16:11 23.62350 45.77946 40940 ft 561 kts 95°
2026-04-25 16:12 23.61622 45.86405 40939 ft 561 kts 95°
2026-04-25 16:12 23.60889 45.94866 40950 ft 560 kts 95°
2026-04-25 16:13 23.60151 46.03324 40948 ft 560 kts 95°
2026-04-25 16:13 23.59410 46.11772 40956 ft 560 kts 95°
2026-04-25 16:14 23.58664 46.20221 40953 ft 560 kts 95°
2026-04-25 16:14 23.58038 46.27232 40963 ft 559 kts 95°
2026-04-25 16:15 23.57286 46.35680 40963 ft 560 kts 95°
2026-04-25 16:15 23.56527 46.44128 40976 ft 560 kts 95°
2026-04-25 16:16 23.55764 46.52579 40979 ft 561 kts 95°
2026-04-25 16:16 23.54993 46.61038 40978 ft 560 kts 95°
2026-04-25 16:17 23.54221 46.69481 40986 ft 560 kts 95°
2026-04-25 16:17 23.53443 46.77927 40991 ft 560 kts 95°
2026-04-25 16:18 23.52662 46.86360 40974 ft 559 kts 95°
2026-04-25 16:18 23.51877 46.94779 40969 ft 558 kts 95°
2026-04-25 16:19 23.51088 47.03201 40963 ft 558 kts 95°
2026-04-25 16:19 23.50301 47.11545 40952 ft 558 kts 95°
2026-04-25 16:20 23.49105 47.24140 40956 ft 557 kts 95°
2026-04-25 16:21 23.47901 47.36711 40954 ft 556 kts 95°
2026-04-25 16:21 23.47093 47.45086 40953 ft 555 kts 95°
2026-04-25 16:22 23.46282 47.53449 40949 ft 555 kts 95°
2026-04-25 16:22 23.45466 47.61816 40948 ft 555 kts 95°
2026-04-25 16:23 23.44646 47.70181 40947 ft 555 kts 95°
2026-04-25 16:23 23.43823 47.78528 40954 ft 555 kts 95°
2026-04-25 16:24 23.42995 47.86881 40950 ft 555 kts 95°
2026-04-25 16:24 23.42164 47.95224 40946 ft 554 kts 95°
2026-04-25 16:25 23.41327 48.03571 40943 ft 554 kts 95°
2026-04-25 16:25 23.40492 48.11858 40937 ft 554 kts 95°
2026-04-25 16:26 23.39647 48.20200 40935 ft 554 kts 95°
2026-04-25 16:26 23.38798 48.28536 40945 ft 554 kts 95°
2026-04-25 16:27 23.38099 48.36876 40934 ft 552 kts 90°
2026-04-25 16:27 23.37784 48.45236 40934 ft 552 kts 90°
2026-04-25 16:28 23.37448 48.53587 40935 ft 552 kts 91°
2026-04-25 16:28 23.37105 48.61938 40937 ft 552 kts 91°
2026-04-25 16:29 23.36757 48.70290 40931 ft 552 kts 91°
2026-04-25 16:29 23.36406 48.78629 40936 ft 552 kts 91°
2026-04-25 16:30 23.36050 48.86989 40933 ft 552 kts 91°
2026-04-25 16:30 23.35690 48.95336 40935 ft 552 kts 90°
2026-04-25 16:31 23.35325 49.03678 40933 ft 552 kts 91°
2026-04-25 16:31 23.34418 49.11975 40933 ft 553 kts 98°
2026-04-25 16:32 23.33221 49.20240 40931 ft 553 kts 97°
2026-04-25 16:32 23.32049 49.28450 40931 ft 553 kts 97°
2026-04-25 16:33 23.30860 49.36709 40929 ft 553 kts 97°
2026-04-25 16:33 23.29663 49.44977 40935 ft 553 kts 98°
2026-04-25 16:34 23.28462 49.53231 40953 ft 552 kts 97°
2026-04-25 16:34 23.27256 49.61485 40937 ft 552 kts 97°
2026-04-25 16:35 23.26048 49.69731 40934 ft 552 kts 97°
2026-04-25 16:35 23.24835 49.77974 40937 ft 552 kts 97°
2026-04-25 16:36 23.23619 49.86214 40937 ft 552 kts 97°
2026-04-25 16:36 23.22397 49.94453 40934 ft 552 kts 97°
2026-04-25 16:37 23.21171 50.02699 40940 ft 552 kts 97°
2026-04-25 16:37 23.19942 50.10927 40941 ft 552 kts 97°
2026-04-25 16:38 23.18709 50.19156 40948 ft 551 kts 97°
2026-04-25 16:38 23.17472 50.27378 40945 ft 551 kts 97°
2026-04-25 16:39 23.16441 50.34212 40941 ft 551 kts 97°
2026-04-25 16:39 23.14945 50.43314 40897 ft 550 kts 105°
2026-04-25 16:40 23.13123 50.51368 40887 ft 548 kts 108°
2026-04-25 16:40 23.11337 50.59473 40929 ft 554 kts 108°
2026-04-25 16:41 23.09601 50.67612 40987 ft 552 kts 104°
2026-04-25 16:41 23.07566 50.79904 40933 ft 550 kts 99°
2026-04-25 16:42 23.06655 50.88161 40979 ft 551 kts 100°
2026-04-25 16:42 23.05652 50.96416 40903 ft 550 kts 101°
2026-04-25 16:43 23.04452 51.04531 40841 ft 545 kts 103°
2026-04-25 16:43 23.03184 51.12727 40856 ft 555 kts 102°
2026-04-25 16:44 23.02092 51.20940 40879 ft 549 kts 100°
2026-04-25 16:44 23.01178 51.29167 40899 ft 549 kts 99°
2026-04-25 16:45 23.00329 51.37406 40900 ft 549 kts 98°
2026-04-25 16:45 22.99503 51.45646 40952 ft 549 kts 98°
2026-04-25 16:46 22.98733 51.53887 41007 ft 547 kts 97°
2026-04-25 16:46 22.98284 51.59323 41058 ft 547 kts 97°
2026-04-25 16:47 22.97727 51.66165 40947 ft 548 kts 98°
2026-04-25 16:47 22.97322 51.70316 40798 ft 548 kts 99°
2026-04-25 16:47 22.96516 51.78493 41021 ft 547 kts 98°
2026-04-25 16:48 22.95981 51.82582 41196 ft 551 kts 105°
2026-04-25 16:48 22.95041 51.86644 41196 ft 558 kts 111°
2026-04-25 16:48 22.93728 51.90574 40914 ft 551 kts 117°
2026-04-25 16:48 22.92259 51.94382 40819 ft 541 kts 117°
2026-04-25 16:49 22.89947 52.02094 40944 ft 539 kts 106°
2026-04-25 16:49 22.88380 52.10124 40912 ft 548 kts 102°
2026-04-25 16:50 22.87402 52.16943 41013 ft 554 kts 101°
2026-04-25 16:50 22.85886 52.26471 40893 ft 548 kts 104°
2026-04-25 16:51 22.84394 52.34591 40851 ft 549 kts 104°
2026-04-25 16:51 22.83495 52.39982 40853 ft 549 kts 102°
2026-04-25 16:52 22.82056 52.50908 40938 ft 545 kts 97°
2026-04-25 16:52 22.81772 52.59094 40971 ft 543 kts 92°
2026-04-25 16:53 22.81526 52.71350 40926 ft 545 kts 92°
2026-04-25 16:54 22.81488 52.79579 41066 ft 542 kts 92°
2026-04-25 16:54 22.81262 52.87471 40942 ft 547 kts 95°
2026-04-25 16:54 22.81041 52.91596 40835 ft 549 kts 95°
2026-04-25 16:55 22.80789 52.95010 40788 ft 551 kts 101°
2026-04-25 16:55 22.79971 53.03222 40895 ft 545 kts 97°
2026-04-25 16:56 22.79250 53.11389 40882 ft 544 kts 98°
2026-04-25 16:56 22.78893 53.19486 40863 ft 540 kts 90°
2026-04-25 16:57 22.79368 53.27567 40939 ft 535 kts 85°
2026-04-25 16:57 22.79850 53.35628 40883 ft 539 kts 91°
2026-04-25 16:58 22.79630 53.43780 40840 ft 542 kts 96°
2026-04-25 16:58 22.79137 53.51920 40805 ft 539 kts 95°
2026-04-25 16:59 22.78815 53.60006 40867 ft 535 kts 94°
2026-04-25 16:59 22.78683 53.68042 41004 ft 534 kts 92°
2026-04-25 17:00 22.78642 53.76148 40927 ft 544 kts 86°
2026-04-25 17:00 22.78493 53.84223 40903 ft 534 kts 87°
2026-04-25 17:01 22.78261 53.92287 40904 ft 536 kts 88°
2026-04-25 17:01 22.78414 54.00313 40895 ft 529 kts 78°
2026-04-25 17:02 22.79772 54.08078 40904 ft 523 kts 72°
2026-04-25 17:02 22.81343 54.15765 40908 ft 522 kts 72°
2026-04-25 17:03 22.82897 54.23456 40891 ft 522 kts 72°
2026-04-25 17:03 22.84446 54.31121 40900 ft 521 kts 72°
2026-04-25 17:04 22.85994 54.38787 40889 ft 520 kts 72°
2026-04-25 17:04 22.87017 54.43861 40891 ft 520 kts 72°
2026-04-25 17:05 22.87188 54.44708 40883 ft 520 kts 72°
2026-04-25 17:05 22.89384 54.55640 40886 ft 520 kts 72°
2026-04-25 17:06 22.90905 54.63246 40664 ft 518 kts 72°
2026-04-25 17:06 22.91679 54.67114 40517 ft 519 kts 72°
2026-04-25 17:06 22.92447 54.70956 40316 ft 524 kts 72°
2026-04-25 17:07 22.93221 54.74828 40057 ft 526 kts 72°
2026-04-25 17:07 22.93991 54.78701 39799 ft 525 kts 72°
2026-04-25 17:07 22.94758 54.82569 39531 ft 525 kts 72°
2026-04-25 17:07 22.95518 54.86395 39270 ft 527 kts 72°
2026-04-25 17:08 22.96289 54.90282 39029 ft 528 kts 72°
2026-04-25 17:08 22.97063 54.94190 38782 ft 530 kts 72°
2026-04-25 17:08 22.97847 54.98154 38530 ft 531 kts 72°
2026-04-25 17:08 22.98470 55.01306 38296 ft 530 kts 72°
2026-04-25 17:09 22.99240 55.05215 37996 ft 529 kts 72°
2026-04-25 17:09 23.00007 55.09110 37710 ft 528 kts 73°
2026-04-25 17:09 23.00776 55.13018 37420 ft 529 kts 73°
2026-04-25 17:09 23.01811 55.16811 37132 ft 521 kts 62°
2026-04-25 17:10 23.03448 55.20268 36854 ft 512 kts 51°
2026-04-25 17:10 23.05629 55.23275 36580 ft 503 kts 40°
2026-04-25 17:10 23.08258 55.25724 36309 ft 495 kts 28°
2026-04-25 17:10 23.11235 55.27534 36047 ft 487 kts 17°
2026-04-25 17:11 23.14432 55.28642 35794 ft 480 kts
2026-04-25 17:11 23.17728 55.29244 35537 ft 481 kts
2026-04-25 17:11 23.21042 55.29837 35278 ft 485 kts
2026-04-25 17:11 23.24358 55.30579 35015 ft 488 kts
2026-04-25 17:12 23.27675 55.31448 34758 ft 491 kts 10°
2026-04-25 17:12 23.30984 55.32389 34503 ft 493 kts 11°
2026-04-25 17:12 23.34308 55.33365 34250 ft 496 kts 11°
2026-04-25 17:12 23.37647 55.34355 34007 ft 498 kts 12°
2026-04-25 17:13 23.40991 55.35349 33735 ft 499 kts 12°
2026-04-25 17:13 23.42127 55.35686 33642 ft 500 kts 12°
2026-04-25 17:13 23.47737 55.37348 33167 ft 505 kts 12°
2026-04-25 17:13 23.51128 55.38352 32895 ft 507 kts 12°
2026-04-25 17:14 23.54538 55.39361 32625 ft 508 kts 12°
2026-04-25 17:14 23.57947 55.40369 32350 ft 509 kts 12°
2026-04-25 17:14 23.61369 55.41382 32062 ft 510 kts 12°
2026-04-25 17:14 23.64794 55.42396 31803 ft 509 kts 12°
2026-04-25 17:15 23.67054 55.43066 31625 ft 508 kts 12°
2026-04-25 17:15 23.71611 55.44418 31283 ft 506 kts 12°
2026-04-25 17:15 23.75018 55.45429 31024 ft 507 kts 12°
2026-04-25 17:15 23.77271 55.46098 30852 ft 506 kts 12°
2026-04-25 17:16 23.80657 55.47103 30593 ft 504 kts 12°
2026-04-25 17:16 23.84038 55.48108 30344 ft 503 kts 12°
2026-04-25 17:16 23.87410 55.49110 30078 ft 500 kts 12°
2026-04-25 17:16 23.90718 55.50095 29881 ft 486 kts 12°
2026-04-25 17:17 23.93924 55.51051 29674 ft 471 kts 12°
2026-04-25 17:17 23.97057 55.52000 29103 ft 465 kts 14°
2026-04-25 17:17 24.00055 55.53319 28448 ft 465 kts 25°
2026-04-25 17:17 24.02819 55.55140 27840 ft 463 kts 34°
2026-04-25 17:18 24.05286 55.57382 27257 ft 460 kts 41°
2026-04-25 17:18 24.07636 55.59737 26677 ft 456 kts 40°
2026-04-25 17:18 24.09981 55.62055 26102 ft 451 kts 40°
2026-04-25 17:18 24.12302 55.64343 25532 ft 447 kts 40°
2026-04-25 17:19 24.14602 55.66615 24981 ft 443 kts 40°
2026-04-25 17:19 24.16877 55.68867 24432 ft 439 kts 40°
2026-04-25 17:19 24.19131 55.71102 23899 ft 435 kts 40°
2026-04-25 17:19 24.21367 55.73322 23313 ft 432 kts 40°
2026-04-25 17:20 24.23581 55.75521 22723 ft 428 kts 40°
2026-04-25 17:20 24.25776 55.77702 22104 ft 424 kts 40°
2026-04-25 17:20 24.27947 55.79861 21540 ft 419 kts 41°
2026-04-25 17:20 24.30101 55.82003 20932 ft 416 kts 41°
2026-04-25 17:21 24.32234 55.84126 20382 ft 413 kts 41°
2026-04-25 17:21 24.34349 55.86233 19765 ft 410 kts 41°
2026-04-25 17:21 24.36454 55.88329 19250 ft 406 kts 41°
2026-04-25 17:21 24.38538 55.90405 18753 ft 403 kts 41°
2026-04-25 17:22 24.40603 55.92464 18396 ft 400 kts 41°
2026-04-25 17:22 24.41965 55.93821 18162 ft 399 kts 41°
2026-04-25 17:22 24.44706 55.96554 17650 ft 398 kts 41°
2026-04-25 17:22 24.46746 55.98591 17271 ft 395 kts 41°
2026-04-25 17:23 24.48768 56.00610 16892 ft 391 kts 41°
2026-04-25 17:23 24.50775 56.02615 16523 ft 390 kts 42°
2026-04-25 17:23 24.52774 56.04613 16156 ft 387 kts 41°
2026-04-25 17:23 24.54758 56.06597 15801 ft 385 kts 42°
2026-04-25 17:24 24.56737 56.08581 15432 ft 385 kts 42°
2026-04-25 17:24 24.58731 56.10513 15075 ft 380 kts 36°
2026-04-25 17:24 24.61002 56.11966 14734 ft 377 kts 22°
2026-04-25 17:24 24.63499 56.12792 14383 ft 373 kts
2026-04-25 17:25 24.66054 56.13230 14041 ft 370 kts
2026-04-25 17:25 24.68588 56.13685 13685 ft 369 kts
2026-04-25 17:25 24.71123 56.14153 13177 ft 366 kts
2026-04-25 17:25 24.73619 56.14618 12630 ft 362 kts
2026-04-25 17:26 24.76103 56.15078 11971 ft 362 kts
2026-04-25 17:26 24.78597 56.15300 11371 ft 357 kts 355°
2026-04-25 17:26 24.81009 56.14820 10919 ft 350 kts 340°
2026-04-25 17:26 24.83238 56.13789 10395 ft 345 kts 333°
2026-04-25 17:27 24.85381 56.12712 10151 ft 332 kts 334°
2026-04-25 17:27 24.87449 56.11696 10044 ft 318 kts 334°
2026-04-25 17:27 24.89423 56.10731 10024 ft 304 kts 334°
2026-04-25 17:27 24.90693 56.10108 10021 ft 300 kts 334°
2026-04-25 17:28 24.93213 56.08868 10025 ft 299 kts 333°
2026-04-25 17:28 24.95011 56.07679 10024 ft 298 kts 314°
2026-04-25 17:28 24.96175 56.05870 9935 ft 292 kts 291°
2026-04-25 17:28 24.96878 56.03771 9666 ft 292 kts 288°
2026-04-25 17:29 24.97540 56.01673 9284 ft 289 kts 288°
2026-04-25 17:29 24.98206 55.99596 8868 ft 287 kts 288°
2026-04-25 17:29 24.98881 55.97533 8442 ft 285 kts 289°
2026-04-25 17:29 24.99558 55.95487 8037 ft 283 kts 289°
2026-04-25 17:30 25.00236 55.93457 7646 ft 281 kts 289°
2026-04-25 17:30 25.00909 55.91443 7255 ft 279 kts 289°
2026-04-25 17:30 25.01581 55.89434 6853 ft 278 kts 290°
2026-04-25 17:30 25.02245 55.87446 6502 ft 275 kts 290°
2026-04-25 17:31 25.02904 55.85470 6105 ft 273 kts 290°
2026-04-25 17:31 25.03554 55.83522 5539 ft 270 kts 290°
2026-04-25 17:31 25.04204 55.81574 4968 ft 270 kts 291°
2026-04-25 17:31 25.04846 55.79645 4513 ft 266 kts 291°
2026-04-25 17:32 25.05476 55.77753 4209 ft 258 kts 291°
2026-04-25 17:32 25.06079 55.75939 4055 ft 245 kts 291°
2026-04-25 17:32 25.06648 55.74228 4028 ft 230 kts 291°
2026-04-25 17:32 25.07178 55.72631 4026 ft 214 kts 292°
2026-04-25 17:33 25.07675 55.71135 4026 ft 200 kts 292°
2026-04-25 17:33 25.08138 55.69739 4029 ft 193 kts 292°
2026-04-25 17:33 25.08602 55.68347 4030 ft 194 kts 292°
2026-04-25 17:33 25.09069 55.66947 4029 ft 195 kts 291°
2026-04-25 17:34 25.09535 55.65544 4026 ft 195 kts 292°
2026-04-25 17:34 25.10050 55.64162 4026 ft 195 kts 297°
2026-04-25 17:34 25.10680 55.62845 4021 ft 194 kts 301°
2026-04-25 17:34 25.11367 55.61571 4019 ft 194 kts 302°
2026-04-25 17:35 25.12062 55.60317 4016 ft 188 kts 302°
2026-04-25 17:35 25.12734 55.59101 3884 ft 184 kts 303°
2026-04-25 17:35 25.13395 55.57911 3637 ft 183 kts 303°
2026-04-25 17:35 25.14061 55.56708 3391 ft 181 kts 303°
2026-04-25 17:36 25.14695 55.55563 3201 ft 172 kts 303°
2026-04-25 17:36 25.15318 55.54440 2966 ft 168 kts 303°
2026-04-25 17:36 25.15926 55.53342 2754 ft 167 kts 303°
2026-04-25 17:36 25.16523 55.52264 2547 ft 165 kts 303°
2026-04-25 17:37 25.17127 55.51173 2338 ft 164 kts 303°
2026-04-25 17:37 25.17720 55.50103 2125 ft 163 kts 303°
2026-04-25 17:37 25.18290 55.49074 1932 ft 150 kts 303°
2026-04-25 17:37 25.18813 55.48128 1740 ft 139 kts 303°
2026-04-25 17:38 25.19307 55.47236 1575 ft 134 kts 303°
2026-04-25 17:38 25.19631 55.46656 1442 ft 133 kts 303°
2026-04-25 17:38 25.20281 55.45486 1208 ft 134 kts 302°
2026-04-25 17:38 25.20765 55.44606 1048 ft 135 kts 302°
2026-04-25 17:39 25.21252 55.43717 893 ft 135 kts 302°
2026-04-25 17:39 25.21738 55.42829 722 ft 135 kts 302°
2026-04-25 17:39 25.22230 55.41965 562 ft 132 kts 302°
2026-04-25 17:39 25.22706 55.41080 404 ft 136 kts 300°
2026-04-25 17:40 25.23193 55.40198 216 ft 133 kts 302°
2026-04-25 17:40 25.23676 55.39332 47 ft 133 kts 302°
2026-04-25 17:40 25.24112 55.38548 30 ft 99 kts 302°
2026-04-25 17:40 25.24408 55.38016 30 ft 67 kts 302°
2026-04-25 17:41 25.24582 55.37690 27 ft 32 kts 291°
2026-04-25 17:41 25.24613 55.37475 27 ft 24 kts 272°
2026-04-25 17:41 25.24615 55.37352 27 ft 12 kts 272°
2026-04-25 17:41 25.24622 55.37279 27 ft 8 kts 287°
2026-04-25 17:42 25.24652 55.37211 27 ft 11 kts 302°
2026-04-25 17:42 25.24699 55.37128 27 ft 14 kts 302°
2026-04-25 17:42 25.24749 55.37041 27 ft 10 kts 302°
2026-04-25 17:42 25.24777 55.36988 27 ft 3 kts 282°
2026-04-25 17:43 25.24765 55.36957 27 ft 8 kts 221°
2026-04-25 17:43 25.24701 55.36914 26 ft 13 kts 211°
2026-04-25 17:43 25.24626 55.36864 26 ft 14 kts 211°
2026-04-25 17:43 25.24540 55.36805 30 ft 15 kts 211°
2026-04-25 17:44 25.24467 55.36756 26 ft 8 kts 212°
2026-04-25 17:44 25.24418 55.36725 29 ft 8 kts 197°
2026-04-25 17:44 25.24367 55.36746 29 ft 11 kts 128°
2026-04-25 17:44 25.24333 55.36803 30 ft 4 kts 121°
2026-04-25 17:45 25.24310 55.36843 31 ft 5 kts 123°
2026-04-25 17:45 25.24302 55.36857 30 ft 7 kts 121°
2026-04-25 17:45 25.24319 55.36897 29 ft 6 kts 31°
2026-04-25 17:45 25.24356 55.36922 30 ft 5 kts 31°
2026-04-25 17:46 25.24371 55.36931 30 ft 0 kts 31°